Time,TemperatureF,DewpointF,PressureIn,WindDirection,WindDirectionDegrees,WindSpeedMPH,WindSpeedGustMPH,Humidity,HourlyPrecipIn,Conditions,Clouds,dailyrainin,SoftwareType,DateUTC
2013-05-18 00:00:00,75.1,70.6,29.95,South,171,0.0,0.0,86,0.00,,,0.00,Wunderground v.1.15,2013-05-18 05:00:00,
2013-05-18 00:05:00,75.1,70.6,29.95,South,171,0.0,0.0,86,0.00,,,0.00,Wunderground v.1.15,2013-05-18 05:05:00,
2013-05-18 00:15:00,74.9,70.4,29.95,South,171,0.0,0.0,86,0.00,,,0.00,Wunderground v.1.15,2013-05-18 05:15:00,
2013-05-18 00:25:00,74.8,70.3,29.95,South,171,0.0,0.0,86,0.00,,,0.00,Wunderground v.1.15,2013-05-18 05:25:00,
2013-05-18 00:30:00,74.7,70.2,29.95,South,171,0.0,0.0,86,0.00,,,0.00,Wunderground v.1.15,2013-05-18 05:30:00,
2013-05-18 00:40:00,74.6,70.1,29.95,South,171,0.0,0.0,86,0.00,,,0.00,Wunderground v.1.15,2013-05-18 05:40:00,
2013-05-18 00:50:00,74.5,70.0,29.94,South,171,1.0,1.0,86,0.00,,,0.00,Wunderground v.1.15,2013-05-18 05:50:00,
2013-05-18 01:00:00,74.4,69.9,29.94,South,171,0.0,0.0,86,0.00,,,0.00,Wunderground v.1.15,2013-05-18 06:00:00,
2013-05-18 01:05:00,74.3,69.8,29.94,South,171,0.0,0.0,86,0.00,,,0.00,Wunderground v.1.15,2013-05-18 06:05:00,
2013-05-18 01:15:00,74.3,69.8,29.94,South,171,0.0,0.0,86,0.00,,,0.00,Wunderground v.1.15,2013-05-18 06:15:00,
2013-05-18 01:25:00,74.1,69.6,29.94,South,171,0.0,0.0,86,0.00,,,0.00,Wunderground v.1.15,2013-05-18 06:25:00,
2013-05-18 01:35:00,74.1,69.6,29.93,South,171,0.0,0.0,86,0.00,,,0.00,Wunderground v.1.15,2013-05-18 06:35:00,
2013-05-18 01:45:00,74.0,69.5,29.92,South,171,0.0,0.0,86,0.00,,,0.00,Wunderground v.1.15,2013-05-18 06:45:00,
2013-05-18 01:55:00,74.1,69.6,29.92,South,171,0.0,0.0,86,0.00,,,0.00,Wunderground v.1.15,2013-05-18 06:55:00,
2013-05-18 02:00:00,74.1,69.6,29.92,South,171,0.0,0.0,86,0.00,,,0.00,Wunderground v.1.15,2013-05-18 07:00:00,
2013-05-18 02:05:00,74.2,69.7,29.92,South,171,0.0,0.0,86,0.00,,,0.00,Wunderground v.1.15,2013-05-18 07:05:00,
2013-05-18 02:10:00,74.2,69.7,29.92,South,171,0.0,0.0,86,0.00,,,0.00,Wunderground v.1.15,2013-05-18 07:10:00,
2013-05-18 02:20:00,74.4,69.9,29.92,South,171,0.0,5.0,86,0.00,,,0.00,Wunderground v.1.15,2013-05-18 07:20:00,
2013-05-18 02:25:00,74.4,69.9,29.92,South,171,1.0,5.0,86,0.00,,,0.00,Wunderground v.1.15,2013-05-18 07:25:00,
2013-05-18 02:35:00,74.6,70.1,29.92,SSE,167,1.0,3.0,86,0.00,,,0.00,Wunderground v.1.15,2013-05-18 07:35:00,
2013-05-18 02:40:00,74.7,70.2,29.92,SSE,166,2.0,8.0,86,0.00,,,0.00,Wunderground v.1.15,2013-05-18 07:40:00,
2013-05-18 02:50:00,74.7,70.2,29.92,South,170,2.0,9.0,86,0.00,,,0.00,Wunderground v.1.15,2013-05-18 07:50:00,
2013-05-18 02:55:00,74.8,70.3,29.92,South,170,1.0,9.0,86,0.00,,,0.00,Wunderground v.1.15,2013-05-18 07:55:00,
2013-05-18 03:00:00,74.8,70.3,29.91,South,170,1.0,3.0,86,0.00,,,0.00,Wunderground v.1.15,2013-05-18 08:00:00,
2013-05-18 03:05:00,74.8,70.3,29.91,South,174,1.0,3.0,86,0.00,,,0.00,Wunderground v.1.15,2013-05-18 08:05:00,
2013-05-18 03:15:00,74.8,70.3,29.91,SSE,167,0.0,6.0,86,0.00,,,0.00,Wunderground v.1.15,2013-05-18 08:15:00,
2013-05-18 03:20:00,74.8,70.3,29.91,South,169,2.0,2.0,86,0.00,,,0.00,Wunderground v.1.15,2013-05-18 08:20:00,
2013-05-18 03:30:00,74.8,70.3,29.91,South,169,0.0,0.0,86,0.00,,,0.00,Wunderground v.1.15,2013-05-18 08:30:00,
2013-05-18 03:40:00,74.8,70.3,29.91,South,169,0.0,1.0,86,0.00,,,0.00,Wunderground v.1.15,2013-05-18 08:40:00,
2013-05-18 03:50:00,74.7,70.2,29.91,South,169,0.0,0.0,86,0.00,,,0.00,Wunderground v.1.15,2013-05-18 08:50:00,
2013-05-18 03:55:00,74.7,70.2,29.91,South,169,0.0,0.0,86,0.00,,,0.00,Wunderground v.1.15,2013-05-18 08:55:00,
2013-05-18 04:06:00,74.6,70.1,29.91,South,169,0.0,0.0,86,0.00,,,0.00,Wunderground v.1.15,2013-05-18 09:06:00,
2013-05-18 04:15:00,74.5,70.0,29.91,South,169,0.0,0.0,86,0.00,,,0.00,Wunderground v.1.15,2013-05-18 09:15:00,
2013-05-18 04:25:00,74.4,69.9,29.91,South,169,0.0,0.0,86,0.00,,,0.00,Wunderground v.1.15,2013-05-18 09:25:00,
2013-05-18 04:35:00,74.3,69.8,29.92,South,169,0.0,0.0,86,0.00,,,0.00,Wunderground v.1.15,2013-05-18 09:35:00,
2013-05-18 04:45:00,74.2,69.7,29.92,South,169,0.0,0.0,86,0.00,,,0.00,Wunderground v.1.15,2013-05-18 09:45:00,
2013-05-18 04:55:00,74.2,69.7,29.92,South,169,0.0,1.0,86,0.00,,,0.00,Wunderground v.1.15,2013-05-18 09:55:00,
2013-05-18 05:00:00,74.2,69.7,29.92,South,169,0.0,0.0,86,0.00,,,0.00,Wunderground v.1.15,2013-05-18 10:00:00,
2013-05-18 05:05:00,74.0,69.5,29.92,South,169,0.0,0.0,86,0.00,,,0.00,Wunderground v.1.15,2013-05-18 10:05:00,
2013-05-18 05:15:00,73.8,69.3,29.92,South,169,0.0,0.0,86,0.00,,,0.00,Wunderground v.1.15,2013-05-18 10:15:00,
2013-05-18 05:25:00,73.6,69.2,29.92,South,169,0.0,0.0,86,0.00,,,0.00,Wunderground v.1.15,2013-05-18 10:25:00,
2013-05-18 05:30:00,73.5,69.1,29.92,South,169,0.0,0.0,86,0.00,,,0.00,Wunderground v.1.15,2013-05-18 10:30:00,
2013-05-18 05:40:00,73.4,69.0,29.92,South,169,0.0,0.0,86,0.00,,,0.00,Wunderground v.1.15,2013-05-18 10:40:00,
2013-05-18 05:50:00,73.2,69.1,29.92,South,169,0.0,0.0,87,0.00,,,0.00,Wunderground v.1.15,2013-05-18 10:50:00,
2013-05-18 05:55:00,73.2,68.8,29.92,South,169,0.0,0.0,86,0.00,,,0.00,Wunderground v.1.15,2013-05-18 10:55:00,
2013-05-18 06:05:00,72.9,68.5,29.93,South,169,0.0,0.0,86,0.00,,,0.00,Wunderground v.1.15,2013-05-18 11:05:00,
2013-05-18 06:15:00,72.4,68.0,29.94,South,169,0.0,0.0,86,0.00,,,0.00,Wunderground v.1.15,2013-05-18 11:15:00,
2013-05-18 06:20:00,72.1,67.7,29.94,South,169,0.0,0.0,86,0.00,,,0.00,Wunderground v.1.15,2013-05-18 11:20:00,
2013-05-18 06:30:00,72.1,67.7,29.94,South,169,0.0,0.0,86,0.00,,,0.00,Wunderground v.1.15,2013-05-18 11:30:00,
2013-05-18 06:40:00,72.2,67.8,29.94,South,169,0.0,0.0,86,0.00,,,0.00,Wunderground v.1.15,2013-05-18 11:40:00,
2013-05-18 06:45:00,72.5,68.4,29.95,South,169,0.0,0.0,87,0.00,,,0.00,Wunderground v.1.15,2013-05-18 11:45:00,
2013-05-18 06:55:00,72.7,68.6,29.95,South,169,0.0,0.0,87,0.00,,,0.00,Wunderground v.1.15,2013-05-18 11:55:00,
2013-05-18 07:06:00,73.0,68.6,29.95,South,169,0.0,0.0,86,0.00,,,0.00,Wunderground v.1.15,2013-05-18 12:06:00,
2013-05-18 07:15:00,73.3,69.2,29.95,SSE,156,0.0,0.0,87,0.00,,,0.00,Wunderground v.1.15,2013-05-18 12:15:00,
2013-05-18 07:25:00,73.6,69.2,29.95,SSE,155,0.0,0.0,86,0.00,,,0.00,Wunderground v.1.15,2013-05-18 12:25:00,
2013-05-18 07:35:00,74.0,69.5,29.96,SSE,156,0.0,0.0,86,0.00,,,0.00,Wunderground v.1.15,2013-05-18 12:35:00,
2013-05-18 07:45:00,74.6,70.1,29.97,SSE,155,0.0,0.0,86,0.00,,,0.00,Wunderground v.1.15,2013-05-18 12:45:00,
2013-05-18 07:55:00,75.2,70.7,29.97,SSE,156,0.0,0.0,86,0.00,,,0.00,Wunderground v.1.15,2013-05-18 12:55:00,
2013-05-18 08:05:00,75.6,71.1,29.97,South,169,1.0,1.0,86,0.00,,,0.00,Wunderground v.1.15,2013-05-18 13:05:00,
2013-05-18 08:15:00,76.5,72.0,29.97,South,184,0.0,0.0,86,0.00,,,0.00,Wunderground v.1.15,2013-05-18 13:15:00,
2013-05-18 08:25:00,77.5,73.0,29.97,South,184,0.0,2.0,86,0.00,,,0.00,Wunderground v.1.15,2013-05-18 13:25:00,
2013-05-18 08:35:00,77.7,72.8,29.97,South,184,0.0,0.0,85,0.00,,,0.00,Wunderground v.1.15,2013-05-18 13:35:00,
2013-05-18 08:45:00,77.6,72.7,29.98,South,184,0.0,0.0,85,0.00,,,0.00,Wunderground v.1.15,2013-05-18 13:45:00,
2013-05-18 08:55:00,77.8,72.9,29.98,South,184,0.0,0.0,85,0.00,,,0.00,Wunderground v.1.15,2013-05-18 13:55:00,
2013-05-18 09:05:00,77.8,72.6,29.99,South,184,0.0,0.0,84,0.00,,,0.00,Wunderground v.1.15,2013-05-18 14:05:00,
2013-05-18 09:10:00,77.9,72.7,29.99,South,184,0.0,0.0,84,0.00,,,0.00,Wunderground v.1.15,2013-05-18 14:10:00,
2013-05-18 09:20:00,78.3,73.1,29.99,South,184,0.0,0.0,84,0.00,,,0.00,Wunderground v.1.15,2013-05-18 14:20:00,
2013-05-18 09:25:00,78.4,72.8,29.99,South,175,0.0,4.0,83,0.00,,,0.00,Wunderground v.1.15,2013-05-18 14:25:00,
2013-05-18 09:35:00,79.2,73.2,29.99,South,173,2.0,2.0,82,0.00,,,0.00,Wunderground v.1.15,2013-05-18 14:35:00,
2013-05-18 09:45:00,79.8,73.4,29.99,South,174,1.0,3.0,81,0.00,,,0.00,Wunderground v.1.15,2013-05-18 14:45:00,
2013-05-18 09:55:00,79.9,73.5,29.99,SW,226,1.0,2.0,81,0.00,,,0.00,Wunderground v.1.15,2013-05-18 14:55:00,
2013-05-18 10:06:00,80.0,73.3,29.99,South,177,2.0,2.0,80,0.00,,,0.00,Wunderground v.1.15,2013-05-18 15:06:00,
2013-05-18 10:15:00,81.0,73.5,29.99,South,183,1.0,2.0,78,0.00,,,0.00,Wunderground v.1.15,2013-05-18 15:15:00,
2013-05-18 10:25:00,81.9,74.0,29.99,SSW,213,1.0,5.0,77,0.00,,,0.00,Wunderground v.1.15,2013-05-18 15:25:00,
2013-05-18 10:35:00,81.7,73.4,29.99,West,265,1.0,3.0,76,0.00,,,0.00,Wunderground v.1.15,2013-05-18 15:35:00,
2013-05-18 10:40:00,81.3,73.0,29.99,WSW,250,1.0,1.0,76,0.00,,,0.00,Wunderground v.1.15,2013-05-18 15:40:00,
2013-05-18 10:50:00,81.0,72.7,29.99,SSW,196,1.0,1.0,76,0.00,,,0.00,Wunderground v.1.15,2013-05-18 15:50:00,
2013-05-18 11:00:00,81.7,72.6,29.99,SSW,208,0.0,3.0,74,0.00,,,0.00,Wunderground v.1.15,2013-05-18 16:00:00,
2013-05-18 11:05:00,81.5,72.4,29.99,South,171,1.0,3.0,74,0.00,,,0.00,Wunderground v.1.15,2013-05-18 16:05:00,
2013-05-18 11:15:00,81.9,72.4,29.99,South,176,0.0,1.0,73,0.00,,,0.00,Wunderground v.1.15,2013-05-18 16:15:00,
2013-05-18 11:25:00,83.5,73.1,29.99,South,171,2.0,2.0,71,0.00,,,0.00,Wunderground v.1.15,2013-05-18 16:25:00,
2013-05-18 11:30:00,83.8,73.4,29.99,South,177,2.0,3.0,71,0.00,,,0.00,Wunderground v.1.15,2013-05-18 16:30:00,
2013-05-18 11:40:00,84.2,72.9,29.99,South,184,0.0,4.0,69,0.00,,,0.00,Wunderground v.1.15,2013-05-18 16:40:00,
2013-05-18 11:50:00,83.8,73.0,29.98,SSW,201,2.0,4.0,70,0.00,,,0.00,Wunderground v.1.15,2013-05-18 16:50:00,
2013-05-18 12:00:00,84.1,72.4,29.98,South,182,1.0,1.0,68,0.00,,,0.00,Wunderground v.1.15,2013-05-18 17:00:00,
2013-05-18 12:06:00,84.5,72.3,29.98,South,176,2.0,5.0,67,0.00,,,0.00,Wunderground v.1.15,2013-05-18 17:06:00,
2013-05-18 12:15:00,84.7,73.0,29.97,South,173,4.0,4.0,68,0.00,,,0.00,Wunderground v.1.15,2013-05-18 17:15:00,
2013-05-18 12:20:00,85.0,72.8,29.97,South,173,1.0,1.0,67,0.00,,,0.00,Wunderground v.1.15,2013-05-18 17:20:00,
2013-05-18 12:30:00,85.0,71.9,29.97,South,170,2.0,6.0,65,0.00,,,0.00,Wunderground v.1.15,2013-05-18 17:30:00,
2013-05-18 12:40:00,85.2,73.9,29.97,South,173,2.0,2.0,69,0.00,,,0.00,Wunderground v.1.15,2013-05-18 17:40:00,
2013-05-18 12:45:00,85.6,73.4,29.97,South,191,2.0,2.0,67,0.00,,,0.00,Wunderground v.1.15,2013-05-18 17:45:00,
2013-05-18 12:55:00,85.6,72.9,29.97,South,188,1.0,1.0,66,0.00,,,0.00,Wunderground v.1.15,2013-05-18 17:55:00,
2013-05-18 13:06:00,85.8,72.2,29.96,North,5,1.0,1.0,64,0.00,,,0.00,Wunderground v.1.15,2013-05-18 18:06:00,
2013-05-18 13:15:00,85.9,73.7,29.95,South,182,2.0,5.0,67,0.00,,,0.00,Wunderground v.1.15,2013-05-18 18:15:00,
2013-05-18 13:20:00,86.3,74.0,29.95,South,182,1.0,1.0,67,0.00,,,0.00,Wunderground v.1.15,2013-05-18 18:20:00,
2013-05-18 13:30:00,86.5,72.9,29.95,South,180,2.0,2.0,64,0.00,,,0.00,Wunderground v.1.15,2013-05-18 18:30:00,
2013-05-18 13:35:00,86.4,72.3,29.95,South,175,3.0,5.0,63,0.00,,,0.00,Wunderground v.1.15,2013-05-18 18:35:00,
2013-05-18 13:45:00,86.8,73.6,29.95,SW,219,2.0,3.0,65,0.00,,,0.00,Wunderground v.1.15,2013-05-18 18:45:00,
2013-05-18 13:50:00,86.8,73.6,29.95,South,172,2.0,2.0,65,0.00,,,0.00,Wunderground v.1.15,2013-05-18 18:50:00,
2013-05-18 14:00:00,87.2,72.1,29.94,SSW,194,1.0,1.0,61,0.00,,,0.00,Wunderground v.1.15,2013-05-18 19:00:00,
2013-05-18 14:05:00,87.3,73.6,29.94,South,176,1.0,1.0,64,0.00,,,0.00,Wunderground v.1.15,2013-05-18 19:05:00,
2013-05-18 14:15:00,87.3,72.2,29.94,South,171,2.0,6.0,61,0.00,,,0.00,Wunderground v.1.15,2013-05-18 19:15:00,
2013-05-18 14:25:00,87.1,73.4,29.94,South,179,1.0,2.0,64,0.00,,,0.00,Wunderground v.1.15,2013-05-18 19:25:00,
2013-05-18 14:35:00,87.6,73.9,29.94,SSW,198,1.0,1.0,64,0.00,,,0.00,Wunderground v.1.15,2013-05-18 19:35:00,
2013-05-18 14:45:00,86.9,73.7,29.94,SSW,202,1.0,1.0,65,0.00,,,0.00,Wunderground v.1.15,2013-05-18 19:45:00,
2013-05-18 14:55:00,87.7,73.5,29.94,SW,218,1.0,1.0,63,0.00,,,0.00,Wunderground v.1.15,2013-05-18 19:55:00,
2013-05-18 15:00:00,87.8,73.6,29.94,SSW,212,1.0,2.0,63,0.00,,,0.00,Wunderground v.1.15,2013-05-18 20:00:00,
2013-05-18 15:05:00,87.7,74.0,29.94,South,171,1.0,2.0,64,0.00,,,0.00,Wunderground v.1.15,2013-05-18 20:05:00,
2013-05-18 15:15:00,88.1,74.8,29.93,WSW,257,1.0,6.0,65,0.00,,,0.00,Wunderground v.1.15,2013-05-18 20:15:00,
2013-05-18 15:25:00,88.1,72.5,29.93,SW,216,1.0,2.0,60,0.00,,,0.00,Wunderground v.1.15,2013-05-18 20:25:00,
2013-05-18 15:35:00,88.2,75.4,29.93,SSW,193,2.0,4.0,66,0.00,,,0.00,Wunderground v.1.15,2013-05-18 20:35:00,
2013-05-18 15:45:00,89.1,74.9,29.92,SSE,159,0.0,11.0,63,0.00,,,0.00,Wunderground v.1.15,2013-05-18 20:45:00,
2013-05-18 15:50:00,88.8,72.6,29.92,SSE,166,1.0,1.0,59,0.00,,,0.00,Wunderground v.1.15,2013-05-18 20:50:00,
2013-05-18 16:00:00,88.3,73.6,29.92,SSE,167,2.0,2.0,62,0.00,,,0.00,Wunderground v.1.15,2013-05-18 21:00:00,
2013-05-18 16:05:00,88.3,74.1,29.92,South,190,0.0,2.0,63,0.00,,,0.00,Wunderground v.1.15,2013-05-18 21:05:00,
2013-05-18 16:15:00,87.1,72.5,29.92,SSE,166,2.0,4.0,62,0.00,,,0.00,Wunderground v.1.15,2013-05-18 21:15:00,
2013-05-18 16:25:00,86.6,73.0,29.92,South,175,0.0,1.0,64,0.00,,,0.00,Wunderground v.1.15,2013-05-18 21:25:00,
2013-05-18 16:35:00,86.9,72.8,29.92,SSW,207,1.0,2.0,63,0.00,,,0.00,Wunderground v.1.15,2013-05-18 21:35:00,
2013-05-18 16:40:00,87.0,72.4,29.92,South,181,1.0,1.0,62,0.00,,,0.00,Wunderground v.1.15,2013-05-18 21:40:00,
2013-05-18 16:50:00,87.3,72.2,29.91,South,169,1.0,1.0,61,0.00,,,0.00,Wunderground v.1.15,2013-05-18 21:50:00,
2013-05-18 17:00:00,87.0,72.4,29.92,SSE,168,2.0,2.0,62,0.00,,,0.00,Wunderground v.1.15,2013-05-18 22:00:00,
2013-05-18 17:05:00,87.0,73.3,29.92,SSE,168,0.0,2.0,64,0.00,,,0.00,Wunderground v.1.15,2013-05-18 22:05:00,
2013-05-18 17:10:00,86.6,72.5,29.92,SSE,168,0.0,0.0,63,0.00,,,0.00,Wunderground v.1.15,2013-05-18 22:10:00,
2013-05-18 17:20:00,86.9,73.3,29.92,South,174,1.0,4.0,64,0.00,,,0.00,Wunderground v.1.15,2013-05-18 22:20:00,
2013-05-18 17:25:00,87.2,74.5,29.92,South,174,1.0,4.0,66,0.00,,,0.00,Wunderground v.1.15,2013-05-18 22:25:00,
2013-05-18 17:35:00,87.4,73.7,29.92,SSE,163,1.0,3.0,64,0.00,,,0.00,Wunderground v.1.15,2013-05-18 22:35:00,
2013-05-18 17:45:00,87.0,73.8,29.92,SSE,167,1.0,1.0,65,0.00,,,0.00,Wunderground v.1.15,2013-05-18 22:45:00,
2013-05-18 17:50:00,87.1,73.4,29.92,South,191,0.0,0.0,64,0.00,,,0.00,Wunderground v.1.15,2013-05-18 22:50:00,
2013-05-18 18:00:00,87.1,73.4,29.92,South,184,0.0,0.0,64,0.00,,,0.00,Wunderground v.1.15,2013-05-18 23:00:00,
2013-05-18 18:05:00,87.0,72.9,29.92,SW,225,0.0,0.0,63,0.00,,,0.00,Wunderground v.1.15,2013-05-18 23:05:00,
2013-05-18 18:15:00,86.5,72.9,29.92,South,186,0.0,1.0,64,0.00,,,0.00,Wunderground v.1.15,2013-05-18 23:15:00,
2013-05-18 18:20:00,86.1,72.5,29.92,SSE,162,0.0,0.0,64,0.00,,,0.00,Wunderground v.1.15,2013-05-18 23:20:00,
2013-05-18 18:30:00,85.9,72.8,29.92,SSE,155,0.0,0.0,65,0.00,,,0.00,Wunderground v.1.15,2013-05-18 23:30:00,
2013-05-18 18:40:00,85.5,72.8,29.92,South,186,1.0,1.0,66,0.00,,,0.00,Wunderground v.1.15,2013-05-18 23:40:00,
2013-05-18 18:50:00,85.1,72.9,29.92,SSW,193,0.0,0.0,67,0.00,,,0.00,Wunderground v.1.15,2013-05-18 23:50:00,
2013-05-18 19:00:00,84.7,72.1,29.92,South,185,0.0,0.0,66,0.00,,,0.00,Wunderground v.1.15,2013-05-19 00:00:00,
2013-05-18 19:05:00,84.5,72.3,29.92,South,185,0.0,0.0,67,0.00,,,0.00,Wunderground v.1.15,2013-05-19 00:05:00,
2013-05-18 19:15:00,84.1,72.4,29.92,South,184,0.0,0.0,68,0.00,,,0.00,Wunderground v.1.15,2013-05-19 00:15:00,
2013-05-18 19:25:00,83.5,72.3,29.92,South,184,0.0,0.0,69,0.00,,,0.00,Wunderground v.1.15,2013-05-19 00:25:00,
2013-05-18 19:35:00,83.1,71.9,29.92,South,184,0.0,0.0,69,0.00,,,0.00,Wunderground v.1.15,2013-05-19 00:35:00,
2013-05-18 19:40:00,82.7,71.9,29.92,South,184,0.0,0.0,70,0.00,,,0.00,Wunderground v.1.15,2013-05-19 00:40:00,
2013-05-18 19:50:00,82.0,71.7,29.92,South,184,0.0,0.0,71,0.00,,,0.00,Wunderground v.1.15,2013-05-19 00:50:00,
2013-05-18 20:00:00,81.4,71.5,29.92,South,184,0.0,0.0,72,0.00,,,0.00,Wunderground v.1.15,2013-05-19 01:00:00,
2013-05-18 20:05:00,81.1,71.6,29.92,South,184,0.0,0.0,73,0.00,,,0.00,Wunderground v.1.15,2013-05-19 01:05:00,
2013-05-18 20:15:00,80.5,71.4,29.92,South,184,0.0,0.0,74,0.00,,,0.00,Wunderground v.1.15,2013-05-19 01:15:00,
2013-05-18 20:25:00,80.1,71.8,29.92,South,184,0.0,0.0,76,0.00,,,0.00,Wunderground v.1.15,2013-05-19 01:25:00,
2013-05-18 20:30:00,79.5,71.3,29.92,South,184,0.0,0.0,76,0.00,,,0.00,Wunderground v.1.15,2013-05-19 01:30:00,
2013-05-18 20:40:00,79.0,71.6,29.92,South,184,0.0,0.0,78,0.00,,,0.00,Wunderground v.1.15,2013-05-19 01:40:00,
2013-05-18 20:50:00,78.5,71.1,29.92,South,184,0.0,0.0,78,0.00,,,0.00,Wunderground v.1.15,2013-05-19 01:50:00,
2013-05-18 21:00:00,78.5,71.1,29.92,South,184,0.0,0.0,78,0.00,,,0.00,Wunderground v.1.15,2013-05-19 02:00:00,
2013-05-18 21:05:00,78.5,71.1,29.92,South,184,0.0,0.0,78,0.00,,,0.00,Wunderground v.1.15,2013-05-19 02:05:00,
2013-05-18 21:15:00,78.4,71.3,29.92,South,184,0.0,2.0,79,0.00,,,0.00,Wunderground v.1.15,2013-05-19 02:15:00,
2013-05-18 21:20:00,78.2,71.2,29.92,South,184,0.0,0.0,79,0.00,,,0.00,Wunderground v.1.15,2013-05-19 02:20:00,
2013-05-18 21:30:00,78.0,71.3,29.92,South,184,0.0,0.0,80,0.00,,,0.00,Wunderground v.1.15,2013-05-19 02:30:00,
2013-05-18 21:40:00,77.2,70.9,29.92,South,184,0.0,0.0,81,0.00,,,0.00,Wunderground v.1.15,2013-05-19 02:40:00,
2013-05-18 21:50:00,76.8,70.5,29.92,South,184,0.0,0.0,81,0.00,,,0.00,Wunderground v.1.15,2013-05-19 02:50:00,
2013-05-18 21:55:00,76.6,70.3,29.92,South,184,0.0,0.0,81,0.00,,,0.00,Wunderground v.1.15,2013-05-19 02:55:00,
2013-05-18 22:06:00,76.4,69.8,29.93,South,184,0.0,0.0,80,0.00,,,0.00,Wunderground v.1.15,2013-05-19 03:06:00,
2013-05-18 22:15:00,76.2,69.6,29.93,South,184,0.0,0.0,80,0.00,,,0.00,Wunderground v.1.15,2013-05-19 03:15:00,
2013-05-18 22:25:00,76.2,69.9,29.93,South,184,0.0,0.0,81,0.00,,,0.00,Wunderground v.1.15,2013-05-19 03:25:00,
2013-05-18 22:30:00,76.1,69.8,29.93,South,184,0.0,0.0,81,0.00,,,0.00,Wunderground v.1.15,2013-05-19 03:30:00,
2013-05-18 22:40:00,75.9,70.0,29.93,South,184,0.0,0.0,82,0.00,,,0.00,Wunderground v.1.15,2013-05-19 03:40:00,
2013-05-18 22:50:00,75.6,70.1,29.93,South,184,0.0,0.0,83,0.00,,,0.00,Wunderground v.1.15,2013-05-19 03:50:00,
2013-05-18 22:55:00,75.4,69.9,29.93,South,184,0.0,0.0,83,0.00,,,0.00,Wunderground v.1.15,2013-05-19 03:55:00,
2013-05-18 23:00:00,75.1,69.6,29.93,South,184,0.0,0.0,83,0.00,,,0.00,Wunderground v.1.15,2013-05-19 04:00:00,
2013-05-18 23:06:00,75.0,69.8,29.93,South,184,0.0,0.0,84,0.00,,,0.00,Wunderground v.1.15,2013-05-19 04:06:00,
2013-05-18 23:10:00,74.9,69.7,29.93,South,184,0.0,0.0,84,0.00,,,0.00,Wunderground v.1.15,2013-05-19 04:10:00,
2013-05-18 23:15:00,74.9,69.7,29.93,South,184,0.0,0.0,84,0.00,,,0.00,Wunderground v.1.15,2013-05-19 04:15:00,
2013-05-18 23:20:00,74.8,69.6,29.93,South,184,0.0,0.0,84,0.00,,,0.00,Wunderground v.1.15,2013-05-19 04:20:00,
2013-05-18 23:25:00,74.6,69.8,29.93,South,184,0.0,0.0,85,0.00,,,0.00,Wunderground v.1.15,2013-05-19 04:25:00,
2013-05-18 23:30:00,74.5,69.7,29.92,South,184,0.0,0.0,85,0.00,,,0.00,Wunderground v.1.15,2013-05-19 04:30:00,
2013-05-18 23:40:00,74.2,69.4,29.92,South,184,0.0,0.0,85,0.00,,,0.00,Wunderground v.1.15,2013-05-19 04:40:00,
2013-05-18 23:50:00,74.0,69.2,29.92,South,184,0.0,0.0,85,0.00,,,0.00,Wunderground v.1.15,2013-05-19 04:50:00,